Location: Unspecified
(42.9300°N, 71.1866°W)
Time: 17:43:26
(UTC-05:00)

CZ-3 Stage 3 - Visible Passes

Search period start: 04 March 2015 00:00
Search period end: 14 March 2015 01:00
Orbit: 430 x 34800 km, 31.0° (Epoch: 03 March)

Date Brightness Start Highest point End Pass type
(mag) Time Alt. Az. Time Alt. Az. Time Alt. Az.
05 Mar 7.5 16:08:41 10° WSW 00:45:43 21° WSW 00:47:44 20° WSW visible
06 Mar 6.9 12:12:31 10° SSW 20:56:23 65° SSW 21:20:59 43° SSE visible
08 Mar 7.5 17:04:21 10° WSW 01:40:11 19° WSW 01:43:53 18° WSW visible
09 Mar 6.8 13:07:13 10° SSW 21:51:39 64° SSW 22:17:07 40° SSE visible
11 Mar 7.5 17:00:02 10° WSW 01:34:37 18° WSW 01:39:59 16° WSW visible
12 Mar 6.8 13:01:56 10° SSW 21:46:50 63° SW 22:13:12 38° SSE visible
